This is the latest recevied weather packets stored in our database for station/object KF7SOJ. If no packets are shown the sender has not sent any weather packets the latest 10 day(s).
| Time | Temp. | Humidity | Pressure | Rain* | Wind** | Luminosity | Snow |
|---|---|---|---|---|---|---|---|
| 1777478128 | 11.67° C | 43% | 936.7 hPa | 0 mm | - | 576 W/m² | - |
| 1777477824 | 11.67° C | 41% | 936.7 hPa | 0 mm | - | 525 W/m² | - |
| 1777477520 | 12.22° C | 40% | 936.7 hPa | 0 mm | - | 612 W/m² | - |
| 1777477217 | 11.67° C | 44% | 936.7 hPa | 0 mm | - | 581 W/m² | - |
| 1777476913 | 11.67° C | 45% | 936.8 hPa | 0 mm | - | 551 W/m² | - |
| 1777476611 | 11.11° C | 49% | 937 hPa | 0 mm | - | 533 W/m² | - |
| 1777476307 | 11.11° C | 47% | 936.7 hPa | 0 mm | - | 517 W/m² | - |
| 1777476003 | 11.11° C | 50% | 936.9 hPa | 0 mm | - | 499 W/m² | - |
| 1777475699 | 11.11° C | 49% | 936.9 hPa | 0 mm | - | 482 W/m² | - |
| 1777475395 | 11.11° C | 52% | 936.8 hPa | 0 mm | - | 467 W/m² | - |
| 1777475090 | 10.56° C | 53% | 936.5 hPa | 0 mm | - | 447 W/m² | - |
| 1777474787 | 10° C | 53% | 936.7 hPa | 0 mm | - | 429 W/m² | - |
| 1777474483 | 10° C | 52% | 936.7 hPa | 0 mm | - | 414 W/m² | - |
| 1777474180 | 9.44° C | 52% | 936.6 hPa | 0 mm | - | 396 W/m² | - |
| 1777473878 | 9.44° C | 54% | 936.7 hPa | 0 mm | - | 380 W/m² | - |
| 1777473575 | 8.89° C | 60% | 936.6 hPa | 0 mm | - | 361 W/m² | - |
| 1777473271 | 8.33° C | 62% | 936.5 hPa | 0 mm | - | 343 W/m² | - |
| 1777472967 | 7.78° C | 62% | 936.5 hPa | 0 mm | - | 324 W/m² | - |
| 1777472664 | 7.78° C | 64% | 936.5 hPa | 0 mm | - | 305 W/m² | - |
| 1777472360 | 7.78° C | 64% | 936.7 hPa | 0 mm | - | 283 W/m² | - |
| 1777472058 | 7.22° C | 64% | 936.5 hPa | 0 mm | - | 267 W/m² | - |
| 1777471753 | 6.67° C | 67% | 936.7 hPa | 0 mm | - | 255 W/m² | - |
| 1777471450 | 6.67° C | 69% | 936.6 hPa | 0 mm | - | 141 W/m² | - |
| 1777471146 | 6.11° C | 69% | 936.4 hPa | 0 mm | - | 218 W/m² | - |
| 1777470843 | 5.56° C | 69% | 936.5 hPa | 0 mm | - | 236 W/m² | - |
* Rain latest hour (hover to see other rain measurements)
** Current wind speed in m/s (hover to see current wind gust speed)